RH
16 15 16 17 16 15 14 14 12 7 6 6 6 8 9 21 52 72 65 57 54 50 51 61 69 61 47 39 37 35 34 29 30 35 36 36 35 31 30 30 28 26 24 24 25 25 28 33 36 38 39 40 39 35 33 34 35 32 31 31 29 28 27 24 22 22 20 19 18 16 15 18 19 24 26 25 27 26 25 28 27 28 32 32 31 39 47
16 16 16 17 18 18 16 16 16 12 9 7 6 11 11 21 60 85 76 68 66 64 73 83 76 60 49 46 46 49 49 42 40 43 41 38 35 32 32 32 31 32 29 27 28 29 29 30 33 37 40 42 41 39 38 39 39 34 30 31 29 27 26 24 25 29 28 26 24 18 15 18 22 26 26 26 28 28 28 29 26 27 30 30 36 48 51
13 13 14 14 16 18 17 16 17 16 14 10 7 13 15 22 54 85 86 81 80 77 83 88 80 70 65 62 59 58 55 48 45 46 43 40 38 35 34 34 34 36 35 31 31 32 32 32 31 34 37 39 38 37 39 43 45 42 36 33 31 30 29 28 31 37 39 41 40 32 26 26 26 26 25 24 25 26 29 29 27 31 33 33 41 51 49
13 13 13 13 13 15 17 16 18 17 16 14 8 12 26 36 52 75 85 86 87 88 88 85 77 70 66 63 59 54 49 44 43 44 43 41 40 37 36 35 35 37 36 35 34 35 35 34 34 35 36 38 38 37 37 40 45 46 41 34 30 28 27 28 29 32 34 36 36 33 32 31 28 24 23 24 26 26 27 27 29 33 32 33 42 48 45
15 14 14 14 12 13 16 16 17 17 16 15 10 13 34 55 66 74 78 80 83 85 85 79 71 65 60 57 55 52 49 44 41 43 45 45 42 40 38 36 35 36 36 35 36 38 38 36 36 37 37 36 37 38 37 35 37 39 37 34 31 27 26 26 26 28 32 33 30 29 30 31 29 27 26 28 30 28 27 28 30 31 29 33 42 44 43
14 12 13 16 14 13 15 16 17 17 15 14 12 13 27 51 72 79 77 79 82 82 81 77 69 64 59 56 55 54 51 50 49 50 50 48 44 43 42 39 37 37 37 36 36 37 37 37 38 37 36 36 35 36 36 34 33 33 32 32 30 27 27 27 26 28 31 32 31 30 28 27 30 33 33 32 31 30 29 30 31 30 29 35 42 43 44
12 10 10 13 15 14 14 16 18 17 16 15 13 14 16 28 55 75 78 79 79 77 80 79 74 69 62 55 56 55 53 55 56 56 55 52 50 48 47 46 43 41 39 37 36 36 37 42 44 38 36 39 38 37 39 39 37 36 35 33 30 28 28 29 29 29 29 29 31 31 26 24 30 36 37 34 33 33 33 33 34 32 31 36 39 41 45
10 9 8 9 13 16 14 15 18 18 17 16 14 16 15 20 46 71 76 75 74 72 77 79 77 74 66 60 61 61 59 57 55 56 58 57 56 55 55 56 55 53 47 38 36 38 39 46 51 44 40 45 44 41 44 43 40 40 38 35 34 33 35 37 35 33 35 36 34 33 31 32 38 40 38 36 36 38 38 36 37 38 38 41 41 38 45
8 8 8 7 11 17 16 16 18 19 18 17 14 15 18 27 52 71 70 70 74 74 75 78 78 76 72 69 68 65 63 64 62 61 60 57 55 56 58 59 59 59 56 47 45 47 44 45 50 48 44 48 49 47 47 47 44 43 41 40 41 38 39 45 43 40 44 43 40 39 38 39 42 41 40 42 41 40 40 40 43 45 44 45 43 39 46
7 7 7 7 11 18 21 19 19 19 19 18 15 18 28 42 63 74 68 66 70 72 71 73 75 77 79 78 74 68 65 66 64 64 65 63 58 54 54 56 57 59 59 58 58 59 54 50 51 51 49 51 53 52 50 49 47 45 42 43 47 45 43 46 45 43 45 46 44 42 40 45 51 49 47 52 51 47 47 47 49 51 49 48 46 43 50
7 6 6 7 11 18 23 24 23 21 20 19 17 22 37 54 68 73 67 62 66 68 65 64 68 75 80 80 76 71 67 63 62 64 68 69 65 60 55 52 52 53 55 59 62 62 61 57 55 54 52 53 55 55 53 51 49 47 44 43 46 47 46 47 46 45 47 48 45 42 43 55 65 61 55 57 56 52 52 52 52 54 54 53 51 52 58
8 7 6 8 12 18 23 25 26 25 24 22 19 19 28 45 61 68 64 59 63 66 64 65 69 70 72 74 73 71 68 65 64 65 68 69 68 66 61 55 53 52 51 52 54 56 58 57 55 54 52 50 50 50 49 48 46 46 45 44 45 45 44 44 44 45 48 47 45 49 56 61 64 64 63 63 60 56 55 56 57 58 59 60 59 60 64
8 8 7 8 11 15 20 22 24 25 25 25 23 19 19 27 38 47 49 48 52 56 59 66 71 69 64 63 63 64 66 68 67 66 67 66 64 63 63 60 59 57 54 52 50 49 50 50 48 47 45 43 43 42 41 40 38 38 38 38 39 39 38 40 40 42 46 46 46 54 61 62 63 65 65 65 63 61 60 62 65 64 62 64 63 62 65
9 8 7 8 9 13 18 19 20 20 21 21 22 21 19 19 20 22 25 28 34 40 43 50 60 66 65 60 54 51 57 66 69 66 64 64 60 57 56 56 56 56 55 53 51 48 46 44 41 38 35 33 32 32 32 30 29 28 26 26 29 31 33 37 38 40 43 43 43 46 52 63 69 65 61 60 59 60 61 63 70 72 68 66 65 63 66
10 10 9 8 10 12 17 20 22 22 21 18 19 20 19 19 19 17 18 23 31 35 37 38 44 50 52 51 47 42 48 63 70 66 64 62 58 55 53 51 48 46 43 41 40 42 42 42 42 42 41 39 36 35 36 36 35 35 32 30 33 34 35 37 39 43 44 44 49 53 57 70 76 68 62 60 56 58 62 64 74 82 78 73 72 69 69
11 11 12 13 14 15 19 22 24 26 25 22 21 22 20 20 21 18 18 23 29 34 40 44 44 38 33 37 44 43 46 58 66 68 69 66 59 58 58 53 48 43 39 39 43 49 51 52 54 53 52 51 49 47 48 47 45 46 44 41 41 39 38 38 40 45 48 47 53 59 64 77 85 77 70 68 65 67 67 67 79 91 88 84 83 80 77
13 11 13 15 17 19 20 22 24 25 26 25 24 24 24 24 24 23 23 25 28 34 43 48 45 34 26 30 41 44 46 52 57 61 65 65 64 65 62 56 52 46 41 45 53 58 59 59 60 59 58 60 59 56 56 55 53 53 52 49 47 44 43 43 46 50 52 50 55 65 73 85 95 89 81 79 77 73 70 74 86 94 91 88 89 87 85
15 14 12 13 15 17 18 20 23 24 25 25 24 24 26 27 27 28 29 28 28 34 39 36 32 29 25 26 31 35 40 48 55 64 68 65 63 66 64 60 55 49 45 50 55 59 62 63 64 63 63 64 64 62 62 63 63 64 62 58 57 56 54 54 55 57 57 55 63 80 90 95 98 95 90 89 85 79 78 82 87 88 86 86 86 84 83
17 16 14 13 13 13 15 18 21 23 23 23 23 24 25 27 27 28 29 27 28 35 41 35 27 24 25 27 30 35 40 39 44 62 77 74 66 64 63 61 59 53 50 52 55 59 64 67 69 68 66 66 65 64 65 65 66 69 69 65 64 66 68 68 67 68 68 65 70 87 98 97 94 91 87 85 82 80 81 82 82 82 82 81 80 80 79
19 19 18 16 14 13 14 16 19 21 22 21 22 23 23 25 26 26 27 26 27 33 40 37 31 27 25 26 30 38 41 36 36 53 71 76 71 65 61 60 61 59 55 54 58 62 64 65 66 66 65 65 66 64 62 62 63 66 69 69 67 69 74 78 79 80 80 77 80 91 97 92 85 81 75 71 72 74 76 75 74 75 75 73 72 72 71
22 21 20 19 17 15 14 14 17 19 20 20 22 22 22 24 25 24 26 28 30 34 33 32 37 39 34 29 30 33 33 31 32 39 52 65 68 63 60 62 62 61 61 60 62 66 67 64 63 64 63 63 64 61 57 57 61 64 65 67 68 69 72 75 77 79 82 85 89 93 90 82 77 74 71 68 68 70 72 72 72 72 70 69 67 65 64
25 24 23 21 20 17 15 14 15 17 20 21 22 22 23 24 24 24 24 29 37 41 38 38 46 50 42 34 35 37 37 36 33 32 43 62 68 62 59 64 65 65 67 66 65 69 71 66 62 64 64 62 60 59 56 56 61 64 61 60 66 70 71 71 70 69 74 84 91 89 82 74 70 69 68 68 68 69 69 69 68 66 64 64 63 61 60
27 26 25 24 22 20 17 15 13 15 18 21 23 23 23 24 24 24 26 35 46 50 46 45 50 55 54 47 42 43 47 47 43 38 43 61 76 76 69 64 64 65 67 68 68 69 71 69 65 62 63 63 61 60 59 59 61 65 65 65 68 71 70 67 67 66 68 76 83 82 75 71 68 67 66 65 65 65 64 62 62 61 60 59 58 57 56
28 28 28 26 24 22 20 17 15 14 15 18 21 22 22 24 24 24 31 42 52 53 49 45 46 49 53 53 52 53 53 51 50 47 42 48 66 78 75 68 63 61 60 63 64 63 66 71 68 62 63 65 63 61 63 66 67 68 70 70 70 69 66 63 63 64 65 68 71 71 68 66 65 64 63 61 60 59 58 58 57 56 55 54 52 51 50
28 28 29 28 27 25 22 19 17 14 14 17 20 21 23 24 24 26 33 39 43 48 49 46 45 47 48 50 56 58 54 54 55 51 42 40 45 52 55 54 52 53 57 60 57 54 61 72 73 67 65 67 66 66 68 69 70 69 69 70 70 69 66 64 63 62 61 62 64 65 64 64 63 62 60 58 56 55 53 52 52 51 48 45 44 43 44
28 28 28 29 28 27 25 22 19 16 15 16 19 21 24 24 23 26 30 33 40 50 54 49 48 49 48 50 56 58 57 62 61 52 45 44 41 39 41 41 39 42 49 55 56 56 64 75 77 72 69 69 69 69 67 66 69 70 68 69 70 67 65 65 65 62 61 61 61 60 60 60 60 59 57 53 49 47 47 47 46 44 39 36 35 37 39
26 27 28 28 29 29 28 26 23 19 16 16 18 22 24 25 24 25 27 30 37 44 48 50 51 50 47 47 52 55 57 60 58 53 52 49 42 42 49 54 55 51 44 44 55 65 69 75 76 74 73 73 69 66 64 64 65 66 64 64 64 64 65 66 63 60 60 60 59 58 56 55 53 50 49 47 43 41 40 38 35 31 28 28 29 32 35
24 25 26 27 28 29 29 28 26 22 19 17 18 20 23 25 24 24 25 29 33 34 40 50 54 50 47 47 48 53 61 62 57 55 56 49 40 44 56 66 75 73 57 48 58 68 71 75 77 74 72 69 63 61 61 60 61 63 64 63 61 63 67 67 64 61 60 59 59 59 59 58 56 52 48 44 39 34 31 30 28 28 30 33 35 36 38
24 24 25 25 26 28 29 29 28 25 22 20 19 20 22 23 22 22 23 28 33 36 41 50 52 49 47 49 50 56 66 69 63 58 56 52 48 51 58 66 77 81 69 55 58 69 74 76 77 73 68 65 61 58 55 56 65 74 73 67 65 68 69 69 66 62 60 59 58 59 58 56 52 46 40 34 29 28 32 37 39 40 43 46 47 47 48
25 25 25 24 25 27 28 29 30 29 26 23 21 21 22 22 22 22 21 26 35 38 37 43 49 48 48 51 57 65 72 74 68 59 57 62 64 62 59 60 67 75 71 60 59 68 73 72 73 73 71 68 65 63 60 61 72 85 84 77 75 76 73 68 63 60 58 57 54 50 46 41 37 34 32 32 34 40 46 49 51 53 55 54 53 53 53
25 25 26 25 25 26 26 27 30 31 30 27 25 24 24 23 24 23 22 27 34 34 35 42 48 50 54 60 64 70 77 80 74 64 60 66 73 70 61 53 52 59 63 57 54 57 61 63 68 73 73 71 67 64 61 59 65 78 86 84 80 76 71 66 62 61 59 53 42 34 30 30 34 38 41 44 48 53 55 56 59 60 58 55 55 58 61
24 24 25 26 26 27 27 27 29 30 31 30 28 28 26 25 26 27 26 28 31 30 34 45 51 57 67 70 68 74 82 81 74 69 65 65 68 68 63 55 51 55 58 56 51 50 50 53 57 62 68 72 66 58 55 55 58 67 77 80 76 73 72 69 66 63 57 44 30 24 26 32 39 43 45 49 53 55 56 58 59 58 57 59 65 69 71
23 23 24 25 26 27 27 28 29 30 32 32 31 31 30 27 29 30 29 30 31 32 37 44 50 61 71 69 67 78 86 80 71 69 67 64 65 65 61 55 54 58 61 58 53 51 51 52 52 54 61 65 60 55 59 63 62 63 66 67 67 69 71 69 65 59 49 34 25 27 33 38 41 43 46 53 57 57 57 59 62 65 68 71 74 74 74
23 23 23 23 25 26 27 29 29 30 32 33 34 34 33 31 31 32 33 32 32 36 41 42 44 58 71 70 71 80 83 75 70 69 67 65 65 64 60 57 56 55 56 55 54 54 55 54 53 54 58 60 59 59 63 66 65 62 60 60 63 67 69 67 61 53 41 30 29 37 44 46 46 47 52 59 63 65 66 68 72 74 76 77 76 73 72
23 24 23 23 24 24 25 27 29 30 30 32 34 34 34 35 33 34 36 36 35 39 43 38 37 51 66 69 70 75 75 71 70 70 68 65 65 64 63 60 57 53 51 52 55 53 50 49 49 49 55 60 60 59 61 64 66 64 63 64 67 67 65 62 56 45 34 29 36 46 51 51 52 56 61 67 72 74 75 77 79 78 77 79 78 74 74
23 23 24 24 24 24 24 25 27 29 29 31 32 31 32 34 35 36 38 40 40 42 42 37 40 53 61 58 57 62 66 67 67 68 68 66 66 68 66 60 58 57 54 53 53 50 48 51 52 50 54 58 57 57 62 65 62 58 59 63 65 63 60 58 52 40 32 34 43 51 54 55 57 61 66 72 77 79 80 81 82 81 81 81 78 74 78
22 23 23 24 23 24 23 23 26 29 30 31 32 31 32 35 38 39 41 43 45 47 44 41 47 55 56 53 54 59 64 66 66 67 68 66 65 68 67 60 58 60 57 54 54 53 52 56 55 53 55 56 53 52 55 53 49 50 56 62 63 59 58 57 51 40 34 38 47 54 56 57 60 65 72 77 79 79 78 79 80 81 81 78 77 80 87
22 23 23 24 24 24 23 24 27 29 30 29 30 31 35 38 40 42 45 48 50 53 52 52 57 60 58 59 61 61 63 67 67 67 69 69 67 68 67 62 59 60 57 55 56 53 52 55 56 56 57 58 54 53 53 49 49 54 60 62 59 55 55 55 48 38 36 42 49 53 55 59 65 71 73 75 76 76 77 78 79 81 82 82 83 90 95
23 24 23 24 24 24 24 25 26 28 29 29 30 34 37 39 42 47 51 51 51 54 56 58 61 62 60 63 66 66 66 70 70 68 69 71 69 69 68 66 66 65 62 60 59 55 52 55 57 57 58 59 57 55 55 56 59 61 59 56 53 51 53 51 40 33 37 45 49 52 58 65 68 67 66 70 77 81 83 85 87 89 92 94 95 97 99
25 25 25 25 25 25 25 25 26 27 28 28 30 35 40 44 47 51 53 52 51 53 57 58 60 61 62 66 71 72 72 73 72 69 68 68 68 68 69 70 70 67 63 62 62 59 57 59 60 60 58 57 55 53 53 57 61 59 55 52 47 44 45 42 32 30 41 51 55 61 65 62 56 56 63 74 82 85 88 92 96 98 99 100 99 100 100
25 24 25 24 24 25 25 25 25 26 28 31 37 43 48 50 51 52 54 56 56 58 60 62 64 66 68 71 73 74 74 75 76 74 70 69 68 69 70 73 72 68 62 61 61 61 61 62 61 59 56 56 56 55 56 60 61 58 55 53 46 38 35 33 29 32 46 59 65 66 59 50 48 57 68 76 80 84 90 95 98 99 99 98 100 101 100
28 28 28 28 27 27 28 29 31 35 40 45 50 53 52 52 53 55 58 62 63 64 65 66 67 69 71 73 76 77 76 77 79 79 77 76 73 70 72 78 79 71 64 62 63 64 65 65 62 58 57 59 60 59 58 61 61 59 57 55 48 37 27 24 28 40 55 67 70 58 41 33 42 56 66 70 73 79 85 88 87 86 86 87 91 96 99
39 38 38 38 38 37 38 43 49 53 55 57 58 57 56 58 61 64 67 70 71 71 70 69 69 73 75 76 77 78 76 76 80 82 81 80 78 75 78 84 83 75 68 67 69 70 70 69 67 65 64 65 65 63 64 66 66 64 60 56 52 44 30 22 31 49 64 72 70 52 30 24 37 52 60 64 66 69 72 72 70 68 67 68 71 76 80
47 46 45 46 45 45 48 56 61 60 58 59 62 66 72 76 78 79 82 82 79 78 78 77 77 79 78 75 74 75 75 75 77 79 81 82 81 80 82 84 81 76 72 73 74 73 69 67 67 68 69 68 67 69 73 74 72 68 61 55 55 55 43 28 32 51 66 71 67 49 25 18 33 48 53 55 56 58 61 62 58 55 54 54 55 56 56
53 52 50 49 51 51 54 59 62 60 59 64 72 81 88 92 91 92 94 93 90 89 90 89 87 87 86 83 80 78 76 73 73 77 82 85 83 80 81 83 81 79 78 79 77 72 63 60 65 71 71 68 67 72 77 76 71 67 63 59 60 61 49 32 32 51 65 70 68 51 24 12 23 38 44 45 47 49 50 51 50 48 45 43 42 43 44
60 58 54 53 55 56 57 58 60 60 62 68 77 88 94 94 93 95 97 95 93 94 95 96 95 93 92 91 86 79 73 71 73 80 88 93 91 87 87 89 89 86 83 81 76 67 59 60 68 73 71 67 68 72 75 75 72 70 68 65 61 54 39 27 33 51 63 68 71 60 32 12 16 31 37 36 36 37 39 41 43 41 38 35 34 32 32
64 62 60 58 57 58 60 62 61 61 62 64 72 84 93 95 95 98 99 97 94 92 93 95 96 94 91 90 86 79 72 71 76 83 89 94 97 97 95 94 94 91 87 81 73 65 64 69 74 74 73 75 77 77 78 78 76 73 70 66 58 46 30 24 34 51 59 64 71 67 41 15 11 23 29 27 26 28 31 32 33 32 30 29 28 26 23
67 65 64 62 59 60 64 64 60 60 64 65 65 72 81 86 90 96 100 100 99 98 98 98 99 98 96 94 88 80 72 71 75 82 87 93 98 99 96 95 95 91 84 77 70 66 71 81 83 76 73 79 86 86 83 81 78 75 72 65 57 46 34 28 34 45 53 58 67 70 54 27 12 14 21 22 22 23 24 25 25 25 24 23 22 22 21
69 69 68 67 66 67 68 65 60 60 65 66 64 63 64 67 72 81 89 95 99 99 98 97 97 98 98 96 93 88 81 75 76 83 91 97 99 98 95 93 90 83 75 73 72 72 79 89 92 84 81 86 92 91 86 82 81 80 78 70 62 56 49 41 38 42 49 55 63 69 64 43 20 11 14 18 18 17 19 21 22 20 18 17 17 19 20
73 72 71 71 72 74 75 72 67 63 63 64 66 66 64 61 61 67 76 86 95 99 99 98 98 98 98 99 99 96 90 81 78 83 88 91 95 100 99 93 84 76 72 76 80 80 83 91 95 94 94 96 96 92 90 89 87 82 78 75 71 65 59 52 45 43 47 55 62 68 69 59 36 16 8 12 16 16 16 18 19 17 15 14 13 13 14
75 75 76 75 74 76 79 80 75 69 65 63 64 65 66 65 66 68 70 75 83 91 96 99 100 99 100 100 100 98 93 87 85 87 88 89 92 97 96 89 81 79 83 89 90 88 88 92 96 98 99 99 96 93 94 95 91 85 82 81 78 69 59 51 47 46 48 55 61 66 69 67 54 33 15 9 11 15 15 16 15 13 11 11 10 9 9
72 76 79 77 76 81 86 85 80 76 74 70 66 66 67 68 72 76 76 76 81 90 97 100 100 100 100 100 100 100 98 95 91 89 87 84 83 84 85 85 86 89 94 98 98 97 97 97 95 93 94 97 98 97 95 94 93 92 92 89 83 73 61 52 48 50 52 56 61 68 70 68 64 55 39 20 10 11 15 15 13 11 10 9 9 9 9
Wind_Speed
21 21 22 23 24 24 24 24 24 21 17 12 11 10 4 6 11 13 15 16 15 14 16 17 14 9 9 9 8 9 10 11 10 7 6 10 12 10 9 6 6 6 5 7 7 7 6 6 9 13 11 10 11 9 8 3 3 11 16 12 8 9 8 8 10 12 14 13 8 9 10 6 4 11 14 11 8 2 4 6 5 4 4 6 6 3 4
22 22 23 23 23 24 24 23 23 23 20 16 11 8 4 8 13 13 16 19 19 19 15 11 10 9 8 8 7 6 8 9 9 9 10 11 12 15 12 6 3 3 5 6 5 4 5 4 2 5 9 7 6 10 12 10 9 7 10 12 10 8 7 5 4 5 9 11 8 6 7 4 5 8 9 10 9 6 4 5 4 4 4 3 3 4 8
23 23 24 24 23 23 22 22 22 22 21 18 12 7 4 7 13 13 14 15 18 18 11 4 6 8 9 11 12 11 11 10 9 11 10 6 5 11 13 8 4 2 4 7 5 3 5 3 3 5 7 6 4 7 12 16 18 12 5 8 9 7 6 6 4 1 1 3 3 3 4 3 1 2 6 9 10 8 4 3 2 4 3 2 5 11 13
24 25 25 24 24 22 21 21 21 21 20 18 12 7 5 4 9 11 11 12 13 11 5 2 3 5 6 9 10 10 11 10 10 12 11 7 5 7 12 13 9 5 5 7 6 4 3 2 4 9 9 7 6 6 9 12 17 16 12 10 9 7 7 6 6 6 5 5 4 5 8 8 8 9 10 10 10 9 6 3 4 5 2 2 8 15 13
24 25 25 25 24 22 20 20 20 21 19 16 12 8 5 3 3 6 7 8 10 10 8 6 5 2 1 1 2 3 6 9 10 10 8 8 7 5 7 12 13 8 6 8 7 4 3 2 5 9 9 9 10 11 11 10 10 13 14 13 11 9 8 7 8 7 7 8 10 12 12 10 8 10 11 9 6 7 7 3 2 2 1 3 9 11 9
24 25 25 25 25 22 20 19 20 22 20 16 13 9 5 2 1 2 1 2 2 2 4 6 7 5 6 5 4 4 4 4 6 8 6 7 10 7 4 7 9 8 7 9 8 5 6 4 4 10 11 11 12 13 10 9 10 10 10 11 11 9 8 10 10 9 9 11 12 14 16 13 9 8 8 7 6 6 6 2 1 1 0 5 7 7 7
24 25 25 24 24 22 20 19 20 22 22 20 15 10 6 3 1 2 3 6 5 4 7 5 5 4 7 7 5 5 4 3 5 7 5 6 9 10 7 4 5 6 7 10 10 8 7 6 5 9 11 10 10 11 8 7 9 8 5 6 8 6 4 7 9 9 10 11 10 11 15 16 11 7 6 6 6 4 3 1 1 3 1 5 7 8 10
24 24 24 24 23 22 19 18 19 20 21 20 16 11 8 5 7 7 7 8 7 3 4 4 4 6 8 7 7 8 9 5 2 5 5 4 4 6 6 4 3 3 3 8 11 11 9 7 6 9 11 9 9 9 7 7 8 7 6 6 6 4 5 6 7 7 7 8 9 11 13 12 7 5 5 5 4 2 2 2 2 2 4 8 9 9 9
24 24 24 23 22 22 19 18 18 18 19 18 16 14 10 8 12 11 8 9 11 7 3 3 5 7 10 10 6 6 10 9 4 2 3 3 4 4 7 7 6 6 4 4 8 9 9 9 8 9 11 11 10 9 9 9 9 8 7 6 6 6 7 8 7 6 5 6 7 9 11 9 5 4 4 3 4 3 3 3 3 3 7 9 8 9 9
24 23 23 22 21 21 20 18 17 17 17 17 16 15 10 8 11 9 6 9 11 10 5 2 4 8 11 12 8 4 6 7 5 4 5 2 3 3 6 9 9 9 7 4 6 9 10 12 11 10 11 11 11 10 9 10 10 8 7 6 7 7 9 9 8 6 5 6 8 9 9 7 4 3 2 4 1 3 3 3 3 3 5 7 8 10 10
24 23 22 21 20 20 19 18 18 17 16 16 16 13 8 5 7 6 3 3 6 7 4 4 7 8 6 6 5 3 1 4 4 3 4 1 3 3 5 8 10 11 10 8 7 8 10 12 12 11 11 12 11 11 11 11 11 10 8 7 7 8 10 9 8 6 6 7 8 6 4 3 1 0 2 2 1 4 4 5 5 3 4 6 8 10 11
24 23 22 21 20 19 18 18 17 16 16 16 15 12 7 3 2 2 1 2 4 4 3 5 7 5 2 0 0 1 2 2 2 1 2 3 4 5 7 10 10 10 12 12 12 12 12 12 13 14 14 14 14 14 14 14 14 13 13 12 10 10 10 9 9 9 8 8 7 2 2 6 8 5 2 1 1 3 3 5 6 6 7 8 9 11 11
24 23 22 21 20 19 18 18 17 16 15 14 13 12 9 5 4 3 4 4 2 1 1 3 2 1 1 1 4 3 2 3 3 2 2 4 6 7 7 10 12 13 14 15 15 15 15 15 16 17 18 18 19 20 20 20 19 17 16 17 16 15 13 12 12 12 10 10 9 4 4 11 13 8 5 5 4 3 4 5 6 7 9 11 12 13 12
24 24 23 21 20 19 18 18 18 16 15 13 11 11 10 7 6 7 7 6 4 3 3 2 4 5 4 6 6 5 4 3 2 3 3 3 5 5 4 7 11 14 16 19 20 20 20 19 18 17 17 17 17 18 19 19 19 19 18 17 17 18 18 16 16 14 12 12 12 10 10 12 12 10 9 9 8 7 8 7 6 6 8 11 12 14 13
24 24 23 21 20 19 19 18 18 18 16 14 12 10 9 8 7 7 7 6 6 6 5 4 4 4 5 7 8 7 4 2 2 3 4 4 5 2 4 2 5 7 11 14 15 17 18 16 12 9 8 7 7 7 8 7 8 12 16 17 17 17 18 19 18 16 15 13 11 9 8 8 10 11 11 11 11 9 8 8 7 7 8 10 11 12 13
24 24 23 22 20 20 19 18 18 17 16 15 12 10 9 8 8 7 6 6 7 8 8 6 4 3 3 5 7 7 4 1 3 5 5 6 5 1 3 2 4 4 4 2 1 4 5 4 3 4 3 2 2 3 3 3 4 6 7 10 16 20 21 22 19 16 18 17 11 6 5 8 11 12 12 11 10 8 7 7 6 7 8 9 9 10 11
23 23 23 22 21 20 20 19 18 17 16 15 13 11 9 8 8 8 7 6 7 8 8 8 6 4 4 5 5 6 6 4 4 6 6 8 8 4 2 4 4 4 2 3 6 5 4 3 2 4 3 0 1 2 2 2 1 2 3 4 8 15 19 20 17 15 17 18 12 6 5 8 11 13 14 12 11 11 8 5 4 7 9 10 9 9 11
22 23 23 22 22 21 20 20 19 18 17 16 14 12 10 8 8 8 8 8 8 8 8 8 6 4 5 5 4 4 4 4 4 6 8 9 9 9 7 6 4 3 1 2 4 5 6 5 3 2 1 2 1 1 0 2 3 3 1 1 2 4 8 10 10 9 10 12 10 7 6 9 10 12 15 14 12 10 8 5 6 9 11 12 12 12 15
21 22 22 23 22 22 21 21 20 19 17 16 15 13 11 9 7 7 7 8 8 8 8 7 6 6 5 5 5 4 4 4 4 5 8 7 7 8 9 9 8 5 3 2 3 3 3 5 6 5 5 5 3 2 3 4 3 4 3 2 2 2 1 2 4 4 4 6 8 8 7 7 7 9 12 11 10 8 7 7 11 12 12 13 14 16 18
20 20 21 22 23 23 22 21 21 20 18 17 15 13 11 10 8 7 7 7 8 7 6 5 5 5 4 4 4 4 5 5 5 6 8 8 6 6 7 8 7 6 4 4 4 3 3 4 6 6 6 6 4 3 5 6 4 3 3 3 2 2 2 2 2 1 2 3 5 6 4 2 3 5 7 7 6 8 8 8 10 12 12 13 15 17 19
20 20 20 21 22 23 22 22 21 20 19 18 16 14 12 11 10 9 8 8 8 8 6 5 5 5 5 5 6 5 5 4 4 5 7 8 8 7 7 7 6 4 3 3 4 4 3 4 6 6 4 4 4 3 3 3 4 4 2 1 2 2 3 4 3 2 3 5 6 7 4 2 1 2 3 2 3 6 8 9 11 14 15 17 18 19 21
20 20 20 21 21 22 23 22 22 21 19 18 16 15 14 12 10 9 7 7 7 7 6 6 6 7 8 9 9 7 6 4 2 4 6 7 7 7 6 6 6 4 3 3 2 2 2 2 5 4 2 3 5 4 2 3 5 5 2 2 2 4 6 5 4 2 5 9 11 10 7 3 2 3 3 2 4 6 9 12 14 17 19 20 22 23 24
20 20 21 21 21 22 22 22 22 21 19 18 16 15 14 12 10 9 8 7 6 6 7 7 7 8 8 9 10 10 9 7 4 3 7 6 5 5 6 6 6 6 7 6 5 4 3 1 3 4 2 3 4 3 3 4 6 6 5 5 5 5 6 5 3 4 7 10 11 9 5 1 1 3 3 5 8 11 13 16 18 20 22 23 25 26 27
19 20 21 21 21 21 22 22 22 21 20 18 16 15 15 13 11 9 8 7 6 6 8 10 9 8 7 7 9 11 11 10 8 4 5 7 6 6 7 8 8 8 9 9 8 9 7 5 5 6 4 3 3 1 2 3 4 5 5 4 2 2 3 4 4 5 5 5 6 5 5 5 5 8 9 11 14 16 18 20 21 22 24 25 26 27 28
19 20 20 21 21 21 21 21 21 21 21 19 18 17 16 13 11 9 8 7 7 8 9 11 11 9 9 7 6 8 11 13 14 11 7 6 7 8 9 10 9 9 9 8 7 8 8 7 7 7 5 4 3 2 1 0 1 2 2 3 4 4 2 1 2 3 5 7 6 6 8 10 11 14 16 17 19 20 22 23 24 25 26 27 28 28 29
18 19 20 20 21 21 21 21 20 20 20 19 17 17 16 14 12 10 9 8 9 8 9 11 11 9 8 7 4 7 11 13 14 14 10 7 6 5 4 6 7 8 8 8 6 6 7 8 8 7 6 5 4 3 3 3 4 5 6 6 6 6 6 4 4 5 7 9 10 10 12 13 15 16 18 20 22 24 24 25 26 27 28 28 28 27 28
17 18 19 20 20 20 21 21 20 19 18 18 17 15 15 14 13 11 9 8 8 7 6 8 9 7 8 8 7 8 11 12 13 14 14 12 8 4 4 5 5 4 3 4 5 4 5 6 7 6 6 5 5 5 6 6 5 6 7 7 7 6 5 5 5 6 8 10 12 13 14 16 17 18 20 22 24 25 25 26 27 28 28 28 27 27 28
16 17 18 19 19 20 20 21 20 19 17 17 16 14 14 13 12 11 9 8 7 6 5 5 5 5 7 10 10 9 13 15 15 15 14 12 7 4 6 7 6 6 6 4 1 4 6 6 5 4 4 5 6 6 7 7 6 6 7 7 6 6 5 5 6 7 9 11 13 15 16 18 20 21 23 25 25 25 26 26 26 26 26 27 27 27 28
15 16 17 17 18 19 19 19 20 19 17 16 15 14 13 13 12 12 11 10 8 6 4 4 5 5 6 9 11 10 12 17 18 13 11 10 9 8 8 6 3 5 7 6 2 4 6 5 3 2 2 4 4 4 3 3 3 4 5 5 5 6 6 7 8 10 12 14 15 16 17 19 21 22 24 25 25 25 25 24 24 24 25 26 27 28 29
15 15 16 16 17 17 18 18 18 18 17 16 16 14 13 13 13 13 13 11 9 7 5 4 5 5 6 8 11 11 12 16 17 12 9 10 12 13 11 7 3 4 5 3 1 1 2 3 2 2 2 3 2 1 1 2 2 3 4 4 5 6 8 10 11 13 14 15 15 16 18 20 21 22 23 23 23 23 23 23 23 24 26 27 27 28 29
15 15 15 16 16 16 17 17 17 17 17 16 15 14 13 13 13 13 12 10 9 8 6 5 4 5 6 8 9 10 11 13 13 11 11 11 12 14 13 9 4 3 3 2 2 2 1 1 3 4 3 3 3 2 2 3 4 5 5 5 6 9 11 13 14 15 15 15 15 16 18 20 20 20 21 22 22 22 22 23 23 24 26 26 27 27 27
15 15 16 16 16 15 16 16 16 16 16 16 15 14 13 13 12 12 11 10 9 8 6 3 2 3 6 6 7 8 9 11 11 11 11 11 11 11 11 9 5 4 4 4 4 3 2 2 3 4 4 4 4 4 4 5 6 7 8 7 9 11 14 15 16 16 15 15 16 18 19 20 19 19 20 20 20 21 22 22 22 23 24 24 24 23 23
16 16 16 17 16 16 15 15 15 15 15 15 14 13 13 12 11 11 11 10 9 8 5 3 1 2 3 5 6 5 6 9 10 10 10 10 9 10 8 7 6 7 6 4 4 4 5 5 3 3 5 5 5 5 5 6 6 7 8 9 10 13 15 17 17 17 17 17 18 19 19 19 19 19 18 18 18 19 20 20 20 20 21 21 21 21 22
17 17 17 17 17 17 16 15 15 14 14 14 13 13 12 12 11 11 11 10 10 8 6 4 2 0 1 4 4 3 5 8 8 7 8 8 8 8 8 7 8 8 6 3 3 6 7 5 3 4 4 4 4 6 7 7 7 7 9 10 12 14 16 18 18 17 17 18 19 18 18 18 18 18 17 17 17 18 18 19 19 19 20 20 20 21 22
19 19 18 18 19 18 17 16 15 14 13 13 12 12 12 12 11 11 11 10 8 7 6 6 4 1 1 3 4 4 5 7 7 6 6 7 7 7 8 9 9 8 5 4 5 6 7 5 6 5 5 6 7 8 8 8 8 9 10 11 12 14 15 17 17 16 17 18 18 18 17 16 16 16 16 17 18 19 19 19 20 20 20 19 19 20 20
22 21 20 20 20 19 18 17 16 15 15 14 13 13 13 12 11 12 11 10 8 6 6 5 4 3 4 5 5 4 5 7 8 7 7 8 8 7 9 9 8 6 6 6 7 7 6 6 7 6 6 9 10 9 9 9 10 10 11 12 13 14 16 16 16 16 17 17 17 17 16 15 15 15 16 17 18 18 18 18 18 17 17 16 16 16 16
23 22 21 21 21 20 19 17 16 16 16 15 15 14 13 12 12 11 10 9 7 5 4 4 4 4 5 6 6 6 7 10 11 9 8 8 7 7 8 8 7 7 8 8 8 8 7 8 8 8 8 9 9 7 8 10 10 10 11 12 14 15 15 16 16 16 17 17 16 16 15 14 14 14 15 15 15 15 15 14 13 12 12 12 12 13 14
24 23 22 22 21 21 19 17 16 16 16 16 16 15 13 12 11 10 9 8 6 4 4 4 4 5 7 8 8 9 10 12 11 10 10 10 7 7 8 8 7 8 9 9 9 9 9 10 10 10 10 11 10 10 10 11 12 12 12 12 14 15 15 16 16 15 15 16 15 13 12 11 11 12 12 12 12 11 11 11 10 10 10 11 12 12 12
22 22 22 21 20 20 19 17 17 16 16 16 16 14 13 11 9 8 8 8 7 6 6 6 5 5 7 10 11 13 13 12 12 12 12 11 10 9 9 8 8 9 11 11 10 9 8 8 8 9 10 11 11 9 8 8 10 11 11 12 14 15 15 15 14 14 15 16 13 10 8 8 9 10 10 10 9 9 9 9 9 9 10 10 11 11 11
20 20 20 19 19 18 18 17 16 16 16 15 14 13 12 11 8 7 9 9 8 7 7 7 6 7 9 11 13 14 14 14 14 15 13 11 10 10 10 10 11 12 13 12 10 7 5 6 7 9 10 9 8 7 6 5 6 8 9 12 14 15 14 14 13 14 15 13 8 5 5 7 8 8 8 8 7 8 8 8 8 8 8 7 8 9 9
17 17 17 16 16 16 16 15 15 15 14 14 13 11 9 7 6 7 8 9 8 7 8 8 7 7 9 11 13 15 15 15 16 16 15 12 11 10 9 10 11 11 10 9 8 7 7 9 10 10 10 9 8 8 8 7 7 9 11 13 15 16 15 14 14 14 12 8 4 3 4 5 6 6 6 6 7 7 8 8 8 9 9 9 9 9 8
12 12 13 13 13 13 13 12 12 11 11 10 9 7 6 5 5 6 7 7 7 8 9 8 8 9 10 12 13 15 16 17 16 16 15 13 12 11 10 10 10 9 9 9 9 8 9 11 12 11 9 8 8 8 8 8 9 11 12 12 14 16 16 14 13 12 9 4 2 3 4 4 5 6 6 7 7 8 9 9 10 11 11 12 13 12 12
9 9 11 11 11 10 11 10 8 7 7 6 5 5 6 6 6 6 7 9 10 10 10 9 9 10 11 12 14 16 18 18 17 17 16 14 13 12 11 11 11 11 11 11 10 9 11 12 12 11 9 8 8 8 9 10 11 11 11 12 13 16 16 14 12 10 6 2 1 2 3 4 4 4 5 6 8 8 8 9 11 12 13 14 16 17 17
9 10 10 11 10 10 8 7 6 5 5 4 5 7 9 10 10 10 10 11 11 11 10 11 12 13 13 14 16 18 18 18 18 17 16 15 13 11 10 10 11 12 13 13 12 12 13 13 12 11 9 8 7 8 10 11 11 11 11 12 14 16 16 15 12 8 4 1 0 1 3 4 3 3 5 6 7 8 8 9 10 11 12 14 15 17 18
10 10 10 11 11 9 7 5 5 4 3 3 4 5 8 11 12 13 13 12 10 10 11 11 12 13 14 14 15 16 17 18 18 17 15 15 14 12 11 11 13 14 15 15 15 16 15 12 11 11 10 7 6 7 9 10 10 11 13 15 15 16 16 14 11 8 5 3 2 1 2 3 3 3 4 5 6 7 6 7 8 9 11 12 13 14 15
10 11 11 11 9 8 7 5 4 3 1 2 2 4 8 10 12 13 15 14 12 11 12 12 12 14 16 16 16 17 18 18 18 16 15 15 15 13 12 12 12 12 13 14 16 15 13 10 8 8 8 6 5 6 7 9 11 13 15 16 16 14 13 11 8 7 5 4 3 3 2 3 4 5 6 5 4 5 5 5 6 7 9 10 11 12 13
10 11 11 10 8 7 7 6 5 5 5 5 7 8 10 12 13 14 15 15 12 11 12 13 15 17 19 19 19 19 20 20 18 16 16 16 16 16 15 14 13 12 13 15 16 13 8 5 4 4 4 4 5 6 9 11 13 14 15 16 15 12 10 9 8 7 5 4 5 5 4 4 6 7 7 6 5 5 5 4 4 5 7 8 9 10 11
11 10 10 9 8 7 8 8 7 6 6 7 8 11 14 16 16 16 16 16 16 15 15 17 18 18 19 20 20 21 21 20 19 17 16 15 15 16 14 13 13 14 15 15 13 9 5 5 6 5 4 4 7 9 11 12 12 13 15 15 14 11 9 9 9 8 6 5 6 7 6 6 8 9 9 8 7 6 5 4 4 4 5 6 7 9 10
12 11 9 8 8 8 9 10 10 8 7 7 9 11 14 17 19 20 20 20 20 20 22 23 23 22 21 21 21 21 21 20 18 16 14 14 14 14 13 13 15 16 15 14 12 8 6 9 12 11 7 6 7 10 11 11 11 13 15 16 14 13 13 12 11 10 8 6 6 7 8 8 9 10 10 9 9 8 6 6 5 3 3 4 5 7 8
14 13 11 9 9 9 10 13 13 11 9 9 10 11 13 15 17 20 21 22 22 23 24 23 23 22 21 21 20 19 19 18 16 14 15 16 16 15 17 18 19 17 15 14 13 11 9 11 15 16 13 10 9 9 9 9 11 14 16 16 16 17 16 14 11 10 9 7 6 7 9 9 8 9 10 11 11 10 9 8 7 5 4 4 4 4 5
17 16 14 13 13 13 13 15 15 14 14 13 13 13 13 14 15 16 18 20 22 24 24 23 22 21 20 19 18 17 18 19 18 17 18 18 18 18 20 20 19 16 14 14 14 13 12 13 16 17 16 14 11 9 9 11 13 16 17 18 19 20 18 14 11 11 10 9 8 8 9 10 9 8 9 11 13 13 12 10 8 7 6 6 5 4 4
19 18 17 16 16 16 17 18 18 18 19 18 17 16 16 17 16 16 17 19 21 22 22 22 23 22 21 20 20 20 20 20 20 21 22 22 21 20 21 20 18 15 14 15 16 17 16 16 16 16 16 15 13 12 12 14 16 17 17 18 20 21 19 14 11 12 12 10 9 9 10 12 11 9 9 11 13 15 14 13 10 9 8 8 7 5 4
Wind_Direction
353 351 350 350 350 350 350 348 345 343 344 336 314 305 283 173 159 165 182 189 190 205 212 203 204 224 244 250 251 252 255 247 245 254 268 291 295 268 253 273 270 269 262 228 232 252 247 230 235 244 253 261 244 197 148 96 274 239 234 230 218 212 210 219 236 252 254 256 281 289 282 277 127 83 58 55 56 56 182 176 168 153 153 162 152 122 103
352 350 350 348 348 349 349 350 350 347 345 344 336 320 275 180 165 170 182 179 182 197 205 207 227 253 263 257 252 263 270 259 263 287 298 297 281 255 247 250 239 264 254 220 213 225 216 208 215 227 223 226 230 210 206 236 268 255 219 212 209 206 203 213 246 278 276 280 294 290 270 251 116 74 38 38 41 45 121 151 160 142 138 170 173 139 116
354 353 353 351 350 349 349 350 354 352 347 347 347 335 292 195 177 184 190 186 192 201 196 195 239 250 257 259 261 270 276 267 264 277 284 294 268 239 232 223 212 250 239 216 209 175 168 176 95 110 159 177 203 224 218 227 245 257 244 215 214 214 211 206 198 177 257 279 300 316 303 312 16 357 348 2 3 5 37 66 101 127 129 109 136 140 119
357 357 357 356 354 352 351 352 356 357 352 348 348 341 317 223 191 196 202 203 209 206 180 137 211 239 261 262 264 271 273 264 255 257 259 257 252 232 218 217 222 232 229 216 209 181 147 142 114 119 143 166 179 208 217 221 232 241 249 250 241 225 215 213 217 215 203 204 225 278 296 306 308 304 321 345 345 339 346 17 83 101 101 99 146 154 138
358 358 359 360 359 357 355 355 358 2 359 353 352 347 328 294 205 193 201 212 210 194 179 176 172 147 18 221 227 249 260 259 245 234 235 231 230 231 223 228 232 231 224 210 197 188 188 161 111 116 139 162 165 180 198 199 202 219 233 242 244 239 233 236 240 237 227 223 229 245 264 292 312 307 316 337 342 326 320 330 76 73 5 118 149 162 155
357 358 360 1 1 1 0 359 1 3 6 7 6 0 348 333 276 224 221 324 288 162 128 163 176 132 92 112 135 165 202 230 206 191 200 212 212 217 222 222 221 216 215 211 200 199 214 205 118 116 133 146 153 162 173 177 182 204 229 233 236 245 246 241 238 229 227 233 233 237 248 264 285 299 309 324 330 320 311 325 38 314 121 125 155 167 146
356 357 359 1 4 4 4 5 4 4 9 14 12 10 15 26 335 329 34 36 12 21 63 95 172 139 97 110 107 103 139 172 183 192 214 216 210 218 224 214 212 210 209 214 218 216 209 191 146 145 150 149 156 155 147 163 185 198 215 222 227 232 217 221 227 219 220 232 234 236 241 247 261 299 325 326 331 328 305 302 311 285 191 147 172 172 137
355 357 359 1 5 7 7 9 9 8 10 12 15 24 35 74 94 85 86 72 45 39 109 117 158 141 108 103 90 81 92 111 198 221 227 232 222 219 218 219 255 264 226 216 221 222 215 196 167 169 173 166 169 169 156 158 171 174 180 196 211 206 179 191 214 215 214 225 230 234 239 246 271 324 324 309 313 298 256 254 256 240 168 156 172 176 144
358 359 0 2 5 8 9 10 11 12 13 13 20 32 45 90 101 93 106 97 67 63 114 160 173 140 97 75 67 77 84 82 80 119 151 212 239 230 221 224 248 273 276 225 210 211 216 212 199 197 197 186 180 185 183 177 176 178 184 188 194 200 189 184 200 212 215 235 244 240 239 248 288 318 309 323 315 277 256 248 228 171 157 162 179 190 169
1 1 2 4 6 8 9 10 10 14 17 19 26 34 45 87 96 81 91 105 85 71 77 133 132 102 79 68 62 63 82 93 108 100 95 144 207 221 229 231 239 252 257 234 194 189 200 210 210 211 212 201 192 195 197 194 193 195 197 185 178 192 198 196 212 225 219 238 253 249 244 254 287 308 344 33 3 259 246 229 215 168 168 185 202 204 189
4 4 5 7 8 9 10 10 11 13 15 19 30 39 46 76 92 81 64 96 93 77 68 105 102 90 83 84 82 78 139 156 150 105 64 65 210 210 227 239 250 256 255 248 228 205 201 209 215 221 225 220 212 208 209 209 208 210 215 203 183 190 198 202 217 215 189 206 229 239 253 252 196 237 354 32 262 251 238 207 199 199 200 200 201 199 192
7 7 8 9 11 11 9 9 9 12 14 18 25 35 36 26 89 119 283 337 67 79 73 82 88 90 95 94 3 252 243 233 199 144 26 332 282 247 231 237 254 268 264 256 251 243 235 232 233 237 242 241 238 235 234 233 229 225 227 226 218 211 207 215 228 218 192 188 198 222 258 198 179 163 133 118 269 276 242 187 178 182 182 179 187 193 191
8 9 9 11 12 12 10 8 6 6 11 16 17 23 28 10 326 290 277 294 355 32 57 76 86 148 169 274 279 276 278 284 278 265 302 322 300 282 258 246 254 267 268 264 262 259 258 258 254 253 255 256 254 253 252 252 249 246 243 242 240 238 234 236 237 227 206 188 185 185 172 175 180 183 175 179 203 223 211 190 179 185 188 189 197 203 198
9 10 11 12 14 15 14 12 10 7 7 11 12 13 19 11 342 321 305 299 313 326 316 280 248 245 258 277 284 286 272 245 241 251 246 261 279 295 304 270 261 266 268 266 266 266 267 269 267 266 265 262 261 261 260 261 260 256 251 246 244 244 240 235 232 226 217 202 193 185 167 165 185 206 208 211 220 223 225 219 201 203 213 215 217 217 209
11 12 14 15 15 17 17 16 14 12 9 10 12 10 8 3 348 335 327 320 320 328 330 308 262 252 268 277 280 282 272 178 174 215 207 219 248 301 32 330 267 270 273 269 265 264 263 263 262 261 255 247 250 258 257 255 250 248 246 239 235 235 232 230 231 225 215 208 195 178 169 181 203 211 219 234 240 242 244 232 213 216 226 231 237 238 231
13 14 16 17 17 17 18 17 16 14 11 10 12 10 4 359 350 340 332 328 327 332 343 347 334 310 293 280 278 287 297 235 201 203 188 204 226 136 56 331 286 293 298 287 224 242 248 239 217 199 191 210 236 228 226 214 192 200 221 226 227 230 231 232 233 222 208 203 194 176 183 197 200 204 214 224 220 216 228 230 215 218 228 234 245 252 251
15 16 16 17 17 17 17 18 16 15 12 9 9 9 6 358 350 343 338 341 345 348 352 350 340 330 318 302 297 312 322 299 248 238 228 223 224 218 242 283 303 327 341 116 113 105 101 101 140 171 163 104 297 224 244 288 265 164 151 171 203 217 220 222 220 208 201 198 190 176 175 177 183 198 207 211 206 202 210 220 195 199 221 234 241 251 257
15 17 17 17 16 16 17 17 17 15 12 8 7 6 6 3 350 337 336 344 349 350 352 355 355 353 343 332 331 335 331 316 277 262 256 243 235 239 248 257 276 318 339 156 128 101 97 99 103 123 106 16 347 199 330 347 355 0 355 121 134 173 190 191 180 172 185 193 180 153 147 164 183 202 205 206 208 204 204 217 216 217 233 246 252 259 264
14 15 17 17 16 15 16 16 17 17 13 11 10 7 6 7 359 344 342 347 350 353 360 5 4 1 355 346 341 332 318 316 301 270 260 253 247 254 263 267 272 288 298 244 181 132 112 106 99 85 55 48 71 108 74 45 17 356 334 309 345 29 81 148 156 155 177 186 165 135 129 154 187 215 221 218 217 212 209 226 239 246 255 262 264 265 266
14 14 15 16 16 16 16 16 17 17 15 14 16 17 18 18 15 10 7 3 357 355 355 2 10 9 357 342 338 322 299 294 294 278 264 256 255 265 268 268 273 278 268 231 189 159 129 110 105 91 64 58 81 111 85 65 52 30 5 353 6 32 51 56 70 138 156 156 143 126 113 130 183 222 238 231 213 209 210 224 246 260 267 270 271 270 270
14 14 15 15 16 15 15 17 18 17 17 17 20 24 27 27 22 19 21 19 8 358 360 18 33 27 6 358 1 345 314 292 276 274 270 261 261 269 267 264 274 279 256 220 189 164 143 117 109 99 82 77 84 86 82 74 70 68 62 31 24 47 79 78 71 102 112 88 89 100 101 67 21 287 279 254 203 214 226 238 254 265 271 273 274 275 277
16 16 15 15 15 15 15 16 18 18 19 20 23 26 27 26 21 15 22 32 16 0 9 30 35 28 14 5 6 1 347 342 308 265 262 261 266 274 273 270 276 275 252 241 216 175 156 131 125 119 106 110 103 88 98 119 86 65 75 140 98 81 94 91 67 82 117 114 114 122 124 97 34 355 332 289 256 258 262 265 270 274 277 278 278 279 281
18 18 17 16 15 15 14 15 17 19 21 23 25 28 28 24 18 15 27 41 26 10 20 31 32 34 23 4 1 2 359 2 359 267 247 249 253 257 260 263 270 268 256 253 252 243 248 233 173 163 136 117 121 108 113 122 99 74 81 106 110 110 120 124 107 106 122 127 132 145 161 172 299 302 296 282 278 279 279 280 280 279 279 280 281 282 282
18 18 19 18 17 16 14 15 15 16 20 23 24 28 31 24 15 18 35 46 39 31 35 36 39 47 40 14 356 349 349 359 7 339 264 248 240 237 246 254 263 271 266 256 252 251 250 241 220 207 190 173 183 172 107 106 100 98 107 117 140 151 143 153 155 152 161 165 163 186 230 257 274 285 289 289 287 287 285 285 285 285 286 287 287 287 286
17 18 18 18 18 16 15 16 15 14 17 20 21 24 27 21 13 19 33 35 26 22 26 29 32 33 30 26 3 346 355 3 359 348 321 275 255 249 253 256 255 260 265 262 257 250 236 220 216 216 207 205 227 248 252 234 229 198 205 253 267 260 261 229 206 225 236 236 238 254 269 278 284 286 288 287 287 288 289 290 292 293 294 294 293 292 290
15 16 17 17 17 16 15 16 16 15 16 18 19 22 21 17 13 15 18 14 9 6 9 15 19 21 29 36 22 3 10 6 353 353 358 342 308 283 279 280 269 261 257 252 247 239 225 217 217 221 217 213 232 269 272 265 269 265 270 286 292 287 287 282 277 284 279 270 270 273 273 274 275 277 281 285 288 290 292 293 295 295 294 293 292 290 288
12 13 14 15 16 15 14 14 15 16 17 17 19 20 18 14 11 10 12 9 358 348 351 3 10 24 40 42 31 16 14 4 353 359 4 354 341 6 46 29 2 333 301 256 231 217 209 212 219 227 232 232 244 266 271 272 280 279 271 277 290 297 297 287 283 290 291 288 290 290 287 283 280 281 285 290 292 294 295 294 294 293 293 292 290 288 289
6 8 9 10 12 13 12 12 12 14 16 16 18 19 17 12 7 8 16 17 3 351 353 1 13 36 46 45 45 36 22 13 6 4 2 357 360 40 54 42 26 9 10 20 145 179 182 194 210 227 250 257 257 264 267 265 270 268 263 268 281 289 296 302 303 304 305 307 309 308 303 297 294 294 295 296 297 298 298 297 295 293 293 293 293 293 294
359 1 2 3 6 8 9 9 10 11 12 12 14 17 15 10 6 8 15 18 17 16 11 11 25 38 42 49 52 41 23 18 17 16 17 23 31 37 31 24 13 356 2 18 62 159 181 196 207 215 258 273 279 280 263 235 225 238 252 269 283 286 295 308 313 315 317 317 314 308 301 297 295 296 296 297 298 299 299 299 299 298 297 297 298 298 299
350 353 354 356 359 1 3 5 7 8 7 7 10 12 9 5 4 7 9 11 12 12 0 354 13 26 32 41 41 30 20 20 18 14 19 25 25 23 17 5 321 310 326 347 60 146 183 194 204 215 236 264 289 305 209 178 189 228 248 263 279 291 300 306 308 312 313 312 308 302 297 295 296 297 298 299 300 300 301 301 302 301 300 300 301 303 304
339 342 344 347 351 353 356 358 1 3 3 2 4 7 4 1 2 3 4 7 7 5 357 340 345 15 30 33 29 21 19 19 11 358 358 7 13 17 13 0 325 295 306 322 330 321 297 210 223 236 240 261 289 294 269 252 252 250 251 263 285 300 306 307 307 308 308 307 306 302 299 299 301 301 300 301 301 300 299 299 298 298 299 302 305 306 306
328 331 334 337 341 344 348 350 352 356 358 356 357 360 359 357 357 356 358 2 3 6 12 358 347 34 34 18 11 13 12 5 353 344 346 355 7 16 14 8 13 20 4 358 5 354 327 294 267 251 244 261 282 289 290 288 276 257 251 267 290 301 307 311 312 311 309 308 308 307 305 304 303 301 302 304 305 303 300 299 299 299 301 304 305 306 307
317 320 323 326 330 334 339 341 342 345 349 348 349 353 351 348 349 352 354 356 357 4 11 356 330 71 31 355 350 2 354 340 335 338 343 347 356 6 7 1 4 4 355 359 26 12 340 327 311 260 245 251 267 282 293 301 294 268 259 273 291 298 303 308 310 308 308 310 311 311 310 306 304 306 310 314 313 309 306 307 307 305 304 303 303 305 310
307 310 313 316 319 323 327 330 331 333 337 339 340 342 341 339 344 351 351 348 348 351 350 338 322 194 14 340 333 329 324 323 329 342 345 336 336 346 351 346 342 338 329 329 355 345 331 315 271 241 243 251 264 277 285 292 298 293 288 291 295 297 301 305 304 304 307 311 314 314 312 308 309 314 320 321 318 314 312 311 308 305 302 302 303 308 314
299 302 304 307 310 313 316 320 321 319 322 327 330 331 331 332 338 346 347 345 341 334 332 337 340 326 271 287 297 315 321 315 316 323 320 315 321 330 335 340 339 327 309 311 332 337 330 301 268 258 263 268 272 277 285 292 298 302 303 303 302 302 305 306 304 304 308 312 315 315 312 311 314 318 320 319 316 312 309 306 304 302 302 304 307 313 320
294 297 299 301 302 304 307 311 311 310 313 317 319 320 324 328 334 339 341 343 341 333 327 326 328 330 321 304 306 329 332 315 313 314 307 309 320 318 315 323 328 314 306 317 322 318 308 291 282 278 277 280 283 284 284 286 291 297 303 307 307 308 309 310 309 309 312 316 317 317 316 318 320 320 317 314 312 309 307 305 303 303 306 308 312 320 329
291 293 294 294 295 297 301 304 304 304 307 309 311 315 322 327 329 331 334 339 342 335 330 331 326 331 338 332 331 346 341 327 323 322 313 311 312 300 296 305 305 297 302 310 307 299 288 279 280 283 283 286 293 292 284 284 290 295 301 306 309 311 313 313 312 312 314 317 318 316 316 318 318 316 314 314 313 311 309 309 311 314 318 322 326 334 342
288 289 289 290 291 294 297 299 299 298 300 302 307 312 317 319 319 317 320 330 331 312 310 332 336 332 340 344 342 341 339 333 328 323 319 319 315 301 298 298 290 287 294 297 294 292 285 276 277 284 284 283 287 289 289 291 290 288 292 303 310 312 312 312 312 313 315 318 317 314 313 316 317 316 316 318 316 315 316 322 330 336 340 342 346 351 354
287 288 289 290 291 292 294 295 296 295 296 299 303 307 308 308 307 300 299 308 317 313 311 322 328 328 336 342 341 338 338 337 331 326 325 324 315 305 301 296 287 287 293 297 298 300 293 284 284 285 282 281 286 292 298 297 289 286 298 314 320 319 316 314 315 317 319 319 316 311 315 323 323 321 323 325 325 329 337 343 347 351 353 354 357 2 4
290 291 291 291 292 293 294 295 296 295 296 298 301 304 305 302 295 289 295 303 312 314 313 315 316 320 328 334 333 331 332 333 329 328 330 328 317 305 298 292 289 292 296 298 300 297 290 291 292 286 283 289 300 308 312 306 297 302 317 328 330 328 323 319 319 322 323 322 322 325 334 335 329 329 339 350 356 358 358 0 6 12 16 18 18 16 15
298 298 297 296 297 298 298 299 299 298 297 300 303 307 309 304 294 295 303 307 307 308 309 308 306 309 318 323 322 321 323 327 326 326 328 328 320 310 301 295 294 295 295 295 293 285 281 285 285 281 284 294 305 307 306 303 304 315 323 330 334 334 328 321 321 325 327 332 352 12 3 348 345 358 18 30 31 28 25 31 42 47 47 49 50 47 41
310 310 308 308 308 307 305 305 305 304 303 308 316 322 326 322 312 310 313 312 308 306 305 301 298 302 308 311 313 315 319 322 321 321 323 323 316 311 307 299 293 292 294 297 297 289 283 282 283 282 288 297 302 303 305 306 308 314 320 326 334 337 332 325 322 326 332 351 30 32 30 17 11 25 47 56 54 52 51 55 61 62 59 60 62 62 63
329 329 327 324 322 320 318 318 319 316 314 323 342 357 2 1 350 333 327 322 314 304 294 287 285 289 295 301 308 314 319 320 319 319 320 319 315 312 306 294 286 290 297 300 297 287 280 280 283 285 292 303 305 302 304 307 308 312 319 326 334 338 336 329 323 325 333 353 33 37 55 48 34 52 83 84 76 72 71 71 73 71 67 65 65 65 67
344 345 341 337 335 335 333 331 331 331 334 356 21 22 14 8 358 341 327 320 311 298 285 279 277 276 280 291 303 311 317 320 319 315 313 312 312 310 301 289 289 296 299 297 294 289 286 285 284 283 288 302 310 305 303 305 306 311 318 324 329 333 332 327 322 318 314 283 199 88 89 83 77 100 115 105 94 91 88 83 81 77 70 67 65 63 65
345 348 346 345 346 351 353 350 346 346 358 37 42 14 349 339 333 325 318 313 303 285 271 268 270 271 274 284 298 308 315 317 313 307 303 302 302 301 295 289 291 296 295 290 289 293 297 300 298 291 289 300 313 307 300 298 299 305 314 321 324 325 323 317 312 307 294 263 221 163 130 119 126 157 154 126 109 106 101 91 85 80 73 69 65 62 61
338 343 347 352 359 9 13 7 354 342 297 221 227 286 301 303 306 310 310 307 297 281 270 268 272 277 279 283 293 303 310 312 309 303 298 295 295 297 297 292 290 290 287 285 291 301 313 322 315 299 294 304 309 294 285 288 296 306 315 320 322 321 316 308 300 296 285 258 238 220 175 144 154 177 179 158 134 126 120 108 97 86 77 72 69 66 63
329 338 347 354 2 10 11 3 354 341 314 277 253 252 268 282 295 305 307 302 295 288 284 282 282 282 281 281 285 295 304 308 305 298 292 288 287 289 290 286 281 277 277 285 299 316 335 345 324 298 297 311 300 275 274 288 301 310 318 324 325 323 316 305 295 288 275 252 237 230 209 176 173 187 197 195 179 161 146 135 119 99 85 78 74 71 68
318 327 341 351 356 358 353 346 344 348 338 309 278 260 259 266 275 285 291 293 295 295 293 292 291 289 285 282 283 290 298 302 301 297 291 283 279 280 281 277 272 273 280 293 309 326 340 330 313 298 289 301 296 284 283 294 303 310 318 324 326 327 323 313 299 287 275 255 236 230 223 201 187 192 203 207 200 186 178 172 158 130 108 96 85 78 73
306 311 321 334 342 345 339 331 329 332 330 316 301 286 276 274 274 275 278 283 287 288 288 290 292 291 287 283 282 285 290 295 298 296 286 274 269 270 271 270 274 281 294 310 318 318 314 312 307 300 291 287 281 276 281 292 302 310 316 318 317 318 319 315 303 289 279 263 240 229 227 216 199 194 202 210 209 205 200 195 191 184 158 131 111 96 87
297 299 303 307 313 323 328 326 324 324 322 315 309 304 297 290 285 280 279 280 282 283 285 288 290 289 284 278 276 280 288 295 296 286 274 270 269 266 265 270 282 295 310 318 316 307 299 296 296 296 297 295 284 275 279 289 296 302 306 306 306 309 311 308 299 287 277 265 249 237 233 228 214 201 203 211 215 213 209 204 204 213 210 182 154 131 115
290 294 298 297 298 305 312 313 314 318 319 316 312 308 306 304 297 288 282 280 280 282 285 289 292 290 285 278 276 281 289 292 290 283 277 274 271 267 267 278 294 306 310 308 304 297 287 282 284 287 291 295 297 295 292 291 295 300 303 304 308 311 310 302 290 281 272 261 252 246 241 238 229 213 208 213 216 216 213 208 209 220 221 204 181 164 152
288 292 295 296 299 303 303 303 305 309 312 311 309 307 308 310 306 295 285 281 278 279 281 285 287 286 283 280 280 280 279 280 282 284 282 281 281 282 284 292 302 303 294 288 288 288 286 284 283 281 282 287 294 297 293 291 295 302 303 302 305 310 308 298 281 271 265 256 249 245 245 243 238 229 222 219 218 217 217 215 213 218 220 209 190 177 170